Погода Мыс Болванский

Погода Мыс Болванский : погода сейчас, прогноз погоды и архив. Всё, что Вы хотите узнать о погоде Мыс Болванский!

Поиск расширенной информации на нашем сайте:

Другие новости

Новости СМИ2

Главная страница сайта

Новости сайта

03.07.2017

Напоминаем, что на нашем специализированном сайте Метеоцентр.Азия вы можете получить высокодетализированные автоматические прогнозы погоды по пунктам России, СНГ и мира в авиационном формате (включающие направление и скорость ветра, видимость, явления погоды, количество и форму облачности, нижнюю и верхнюю границу облачности).

Рекомендуем: Где купить металлический шкаф litpolmebel.com.

Погода Мыс Болванский - сегодня

Время (UTC), дата Ветер
(°,м/с) 
Видим.   Явления Облачность Т
(°С)
Тd
(°С)
f(%) Тe
(°С)
Pmin
(гПа)
dP
(гПа)
Po
(мм)
O2
(г/м3)
Тmin Tmax R s Состояние
почвы
12 16.05.18 300 (СЗ) 10 км    8/0 средняя 
[Ac trans]
-3 -4.5 89 -6  1020  -0.9  764  312           
18 16.05.18 020 (С) 10 км    10/0 средняя, верхняя 
[Ac trans|Ci]
-4 -4.7 95 -6  1017.3  -1  762  312           
21 16.05.18 020 (С) 10 км    10/0 средняя 
[Ac und]
-4.5 -5.1 96 -8  1016.7  -0.6  761  313           
00 17.05.18 060 (СВ) 10 км    9/0 средняя 
[Ac trans]
-5.5 -5.7 98 -9  1016.8  0.1  762  314           
06 17.05.18 070 (В) 10 км    6/0 средняя 
[Ac trans]
-6.3 -7.5 91 -11  1019.1  1.4  763  316           
09 17.05.18 060 (СВ) 10 км    8/0 средняя 
[Ac trans]
-9.3 -10.7 90 -15  1021.1  765  320           
12 17.05.18 070 (В) 10 км    10/0 средняя 
[Ac und]
-7.9 -9.3 90 -13  1023.1  766  319           
15 17.05.18 070 (В) 10 км    10/0 средняя 
[Ac und]
-7 -8.6 88 -11  1024.1  767  318    -5.1       
18 17.05.18 080 (В) 10 км    10/0 средняя 
[Ac und]
-6.8 -8.4 88 -9  1024.6  0.5  767  318           
21 17.05.18 030 (СВ) 10 км    10/10 540 м 
[Sc]
-6.8 -8.3 89 -8  1025.3  0.7  768  318           
00 18.05.18 030 (СВ) 10 км    10/10 540 м 
[Sc]
-6.9 -8.4 89 -8  1025.5  0.2  768  318           
03 18.05.18 300 (СЗ) 10 км    10/10 540 м 
[Sc]
-6.7 -8.5 87 -8  1025.5  768  318  -7.1      неравномерный
мокрый или
старый снег
100% 
06 18.05.18 280 (З) 10 км    10/10 540 м 
[Sc]
-6.3 -8 88 -8  1025.4  -0.1  768  318           
09 18.05.18 280 (З) 10 км    10/0 средняя 
[Ac und]
-5.8 -7.6 87 -8  1025.3  -0.1  768  317           
12 18.05.18 230 (ЮЗ) 10 км    10/0 средняя 
[Ac und]
-6 -7.6 88 -9  1024.5  -0.8  767  317           
18 18.05.18 170 (Ю) 10 км    10/10 480 м 
[Sc]
-6.8 -7.6 94 -11  1021.3  -1.9  765  317           
21 18.05.18 170 (Ю) 10 км    10/0 средняя 
[Ac und]
-6.9 -7.6 95 -12  1019.5  -1.8  764  316           
00 19.05.18 150 (ЮВ) 7-10{11}  10 км    10/8 450 м средняя 
[Sc|Ac und]
-6.9 -7.6 95 -12  1016.7  -2.7  762  316           
03 19.05.18 140 (ЮВ) 9-11{11}  10 км  позёмок  10/0 средняя 
[Ac und]
-6.7 -7.6 93 -13  1013.6  -3.2  759  314  -7.1      неравномерный
мокрый или
старый снег
100% 
12 19.05.18 120 (ЮВ) 5{12}  10 км    10/0 средняя 
[Ac und]
-1.4 -2 96 -5  1004.6  -2.6  752  305           
18 19.05.18 010 (С) 2000 м  снег  10/0 средняя 
[As op]
-1 -1 100 -3  1000.8  -1.2  750  303           
00 20.05.18 020 (С) 8-10{11}  10 км  позёмок{снег}  10/0 средняя 
[Ac und]
-4.8 -5.1 98 -10  1003.8  1.9  752  309           
03 20.05.18 030 (СВ) 8-10{11}  10 км    10/0 средняя 
[Ac und]
-5.4 -6 96 -11  1005.9  2.2  753  310  -5.4    11  неравномерный
сухой снег
100% 
12 20.05.18 330 (СЗ) 10 км    3/0 средняя, верхняя 
[Ac trans|Ci fib]
-5.1 -6.3 91 -8  1011.3  1.5  758  312           
03 21.05.18 260 (З) 11-13{13}  1000 м  позёмок  10/10 270 м 
[St]
-0.7 -0.7 100 -6  1008.5  -1  755  305  -4.8      11  неравномерный
сухой снег
100% 
Время (UTC), дата Ветер
(°,м/с) 
Видим.   Явления Облачность Т
(°С)
Тd
(°С)
f(%) Тe
(°С)
Pmin
(гПа)
dP
(гПа)
Po
(мм)
O2
(г/м3)
Тmin Tmax R s Состояние
почвы

Для получения пояснительной информации подведите курсор к названию столбца.

ПОГОДА Мыс Болванский - архив

Всё, что Вы хотите узнать о погоде Мыс Болванский - удобно и подробно!

Выберите нужную дату (начиная с 1 января 2015* года) и нажмите кнопку "Найти".
Будут отображены архивные сводки погоды по пункту Мыс Болванский, начиная с указанной даты.


Отображать данные в формате CSV (для использования в таблицах Excel)


Внимание! Наш архив погоды предназначен исключительно для личного некоммерческого использования в познавательных целях. Если Вам необходимы официальные справки о состоянии погоды (для производственных, юридических, коммерческих и т.п. целей), обращайтесь в органы Росгидромета.

*Примечание: данная дата относится к архиву по метеостанциям СССР (Россия, СНГ, Балтия).
Архив по метеостанциям Зарубежной Европы и Азии (кроме Китая) хранится 10 дней, по другим регионам земного шара (Китай, Африка, Америка, Австралия, Океания) - 1 день.

Мыс Болванский - район местоположения метеостанции


Название, широта, долгота, высота метеостанции:
Мыс Болванский 70.4°ш. 59.1°д. 13 м над ур. моря [Российская Федерация]

Дополнительная информация

В oтличие oт бoльшинства пoгoдных сайтoв мы публикуем пoдрoбную метеoинфoрмацию в детальнoм прoфессиoнальнoм фoрмате.

Характеристики температуры и влажнoсти вoздуха измеряются на высoте 2 м в тени вдали oт зданий и деревьев.
Скoрoсть ветра измеряется на высoте 10 м (на урoвне рoста челoвека скoрoсть ветра ниже в 1.5-2 раза). Если метеoстанция нахoдится в гoрoде или в лесу, тo скoрoсть ветра занижена на 2-4 м/с пo сравнению с oткрытым местoм. Скoрoсть ветра над акватoриями крупных рек и oзёр, а также на вершинах хoлмoв на 2-5 м/с выше, чем в oбычных услoвиях.
Атмoсфернoе давление в разных тoчках местнoсти мoжет значительнo oтличаться oт давления на метеoстанции, в зависимoсти oт услoвий рельефа (при пoдъёме на 10 м давление пoнижается примернo на 1 мм рт.ст.).